Theta_e
296 296 296 296 296 296 296 296 297 298 299 298 297 296 296 295 295 294 294 294 295 296 297 294 294 291 289 288 288 288 289 290 288 282 283 283 282 281 282 280 282 281 285
294 294 295 295 295 294 294 295 295 296 296 296 296 294 294 294 293 293 292 293 293 294 294 292 292 290 287 287 286 286 287 289 288 283 281 281 281 281 280 279 280 281 281
292 292 292 293 293 293 293 294 293 293 294 294 294 294 294 293 292 292 292 292 292 294 292 292 291 289 288 287 286 286 285 287 285 283 281 281 280 280 278 278 278 278 281
290 290 289 290 290 291 291 291 291 292 291 292 292 293 293 292 292 291 290 290 290 291 291 292 291 289 289 287 286 286 285 284 284 283 281 280 279 279 279 277 276 277 277
287 287 287 288 288 288 288 288 289 288 289 289 289 290 290 290 291 289 288 289 289 289 290 290 290 289 289 289 287 285 284 284 283 283 280 279 278 277 277 277 276 275 275
285 285 286 285 284 284 284 285 286 286 287 287 287 287 287 289 292 292 291 288 288 288 288 288 289 286 287 289 289 289 287 284 282 282 282 280 279 278 277 276 275 273 271
282 283 282 282 281 281 282 282 283 284 285 285 285 286 286 287 291 291 291 289 288 287 287 287 286 286 285 285 288 289 288 288 288 283 282 281 279 278 277 275 275 274 273
280 280 281 280 280 280 280 281 281 282 282 283 284 285 285 286 290 291 290 288 288 287 287 286 286 285 284 285 285 284 284 284 285 283 282 281 279 278 278 277 275 272 272
279 279 280 280 279 279 279 279 280 280 281 282 283 284 284 285 289 289 289 287 286 286 286 285 285 285 285 287 283 282 281 279 280 283 281 282 282 281 278 275 271 269 267
277 278 278 278 278 277 277 278 279 280 280 281 282 283 283 284 287 288 288 286 285 285 285 284 284 284 285 286 283 281 278 277 276 277 278 280 280 279 279 275 273 270 267
276 276 276 276 276 277 277 278 278 278 279 279 280 281 282 283 284 287 288 286 285 284 284 284 282 285 286 285 285 281 280 277 278 276 275 273 273 273 272 273 273 272 268
274 273 273 273 274 275 275 276 277 277 277 277 278 279 281 282 283 285 286 287 288 285 284 284 283 284 286 286 285 281 282 278 275 273 271 270 269 269 269 269 270 269 270
270 269 270 272 273 274 273 273 273 275 276 276 277 277 278 281 282 284 285 285 287 285 286 285 284 283 285 285 286 282 280 274 273 271 270 269 270 269 268 267 268 268 268
267 268 270 270 270 270 272 272 272 273 274 275 276 276 277 278 280 282 283 282 283 284 285 284 283 282 284 283 282 283 278 274 272 270 270 269 269 268 267 267 265 265 264
267 267 268 268 267 268 269 270 272 274 275 275 276 276 276 276 278 282 282 283 282 283 284 280 279 279 279 279 279 277 273 272 271 270 269 267 267 267 266 266 266 264 263
264 265 265 265 265 267 267 268 273 275 276 278 278 277 277 279 281 282 282 283 285 287 282 277 277 277 277 277 273 270 270 270 270 269 268 267 266 266 265 265 264 263 262
262 263 263 264 265 265 266 267 266 270 274 275 276 277 277 278 279 280 281 282 284 285 281 277 276 276 276 274 271 270 270 270 270 269 268 267 266 266 265 263 263 262 262
260 262 262 263 264 265 266 266 267 266 266 267 272 274 275 276 277 278 280 281 280 282 281 277 275 275 275 272 271 271 269 268 268 267 267 267 266 265 264 263 263 262 261
261 262 263 263 263 264 265 265 266 266 265 265 267 269 270 274 276 276 277 275 277 277 279 276 276 274 273 273 271 270 268 267 267 267 266 266 265 264 263 263 262 262 260
259 262 263 262 263 263 264 264 264 264 264 264 264 265 266 270 267 267 269 270 270 273 275 274 273 273 272 271 270 269 268 267 266 266 265 265 264 264 262 262 261 260 259
261 261 261 260 262 262 263 263 262 262 262 262 262 264 271 266 264 265 266 266 265 265 269 272 272 272 272 271 270 269 268 267 266 266 264 264 263 262 262 262 260 260 259
259 259 259 259 261 261 261 261 261 261 261 261 261 262 267 262 262 263 263 263 263 264 265 266 268 270 271 270 269 268 267 265 265 264 264 263 262 261 261 259 259 258 257
257 257 258 258 259 259 260 259 259 259 259 259 259 259 260 259 260 261 262 262 262 262 262 263 264 264 264 265 266 267 266 265 264 264 262 261 260 260 259 258 257 256 255
255 255 256 257 257 257 258 258 258 258 258 258 258 258 258 259 259 260 260 260 261 261 260 260 261 261 261 261 261 262 262 262 263 262 262 260 259 259 258 257 256 256 255
252 253 255 255 256 256 256 257 257 257 257 257 258 258 258 258 259 260 260 260 260 259 259 259 259 259 259 259 259 259 260 262 260 260 260 259 258 257 256 256 255 254 253
252 251 253 254 255 255 256 256 257 257 257 257 258 258 259 259 259 259 260 259 259 259 259 259 258 258 258 258 258 259 258 260 259 259 257 257 256 255 254 253 252 251 251
Wind_Speed
9 7 7 7 6 6 6 6 7 6 7 7 7 7 7 6 6 6 6 6 8 8 7 8 10 6 5 5 4 3 4 4 4 1 2 3 6 8 6 5 5 4 4
8 8 8 8 8 7 8 8 7 8 7 8 7 7 7 7 7 7 10 8 9 10 10 8 11 5 6 5 4 6 5 5 4 5 3 3 4 8 8 7 6 4 3
8 8 10 10 10 10 10 9 9 9 10 8 8 10 11 10 9 9 10 10 10 12 10 11 11 7 9 6 7 7 5 5 4 4 4 2 2 7 5 4 5 4 4
11 11 10 11 11 11 11 11 10 10 11 11 10 12 11 11 11 10 11 12 12 12 12 12 12 12 14 11 10 11 8 8 6 4 3 4 2 4 5 8 5 2 4
12 12 12 12 12 12 13 13 13 11 11 11 12 12 12 11 10 10 10 12 13 14 13 13 13 14 15 14 9 10 10 8 7 7 4 3 4 7 13 6 5 5 2
10 10 10 11 11 11 12 13 12 12 12 11 11 12 13 11 18 20 16 12 13 15 15 13 13 11 16 20 20 16 16 13 12 8 8 8 10 7 8 9 7 5 4
8 8 8 8 10 11 12 12 14 15 14 13 13 12 15 15 22 21 21 15 15 15 16 14 12 11 14 13 18 17 17 19 16 13 15 12 11 12 11 11 7 4 4
8 10 11 12 14 14 14 14 14 14 14 14 15 15 15 15 23 23 21 16 16 17 16 16 16 15 14 15 14 15 15 13 15 8 10 8 6 10 12 8 9 7 6
10 12 14 14 14 15 15 15 14 15 15 15 15 16 16 19 21 23 18 14 16 18 15 15 15 15 17 24 15 16 13 9 6 11 7 11 14 18 16 11 7 8 3
12 13 13 13 14 15 14 15 14 14 16 14 18 15 18 19 22 24 19 11 15 13 13 14 19 18 19 25 15 13 14 12 10 6 7 9 12 14 18 7 11 11 5
11 12 12 13 14 14 15 14 15 15 15 15 17 17 17 15 18 25 24 13 13 13 12 12 10 25 27 27 26 15 15 11 15 10 8 7 4 6 5 4 6 7 5
12 13 13 13 12 12 15 14 15 15 16 16 16 16 13 14 18 21 25 25 23 15 15 11 10 20 24 26 22 19 19 16 9 9 9 7 7 6 5 5 7 7 6
13 12 12 13 12 12 14 15 13 13 13 15 14 15 17 15 13 23 24 26 26 17 14 15 17 18 24 23 28 25 20 11 10 8 9 7 7 7 8 8 8 10 9
11 12 11 12 12 12 10 10 10 11 12 12 13 14 15 16 14 13 11 11 17 16 18 12 13 15 20 17 13 17 11 10 10 9 8 7 8 8 7 6 5 6 4
11 11 11 10 11 12 10 10 10 11 13 14 13 14 14 16 15 27 26 15 11 13 15 5 7 7 8 7 7 5 6 8 7 7 8 7 7 7 6 6 6 6 4
11 9 9 9 10 10 11 12 15 21 25 25 26 21 15 26 34 34 33 33 29 24 11 7 8 9 9 7 7 7 8 11 9 8 9 9 8 8 7 6 5 4 5
9 10 8 9 9 10 10 11 16 18 23 22 25 29 30 31 34 35 35 35 29 25 11 8 8 8 8 6 8 9 8 7 10 8 8 8 8 7 9 7 6 6 4
8 11 7 8 8 9 10 11 10 12 15 17 19 25 28 32 34 33 33 28 13 8 8 6 7 7 6 8 8 8 7 7 8 8 8 8 8 8 7 7 7 6 6
8 7 7 8 8 10 10 10 10 11 12 12 14 18 18 30 31 30 30 13 11 8 9 4 5 7 8 7 7 6 8 8 8 8 7 7 8 8 7 7 6 8 6
6 10 9 8 9 9 9 10 10 11 11 11 11 12 14 17 14 14 13 12 11 10 7 3 3 6 8 9 8 7 7 7 7 7 7 7 7 7 7 8 7 7 5
6 8 11 8 8 8 9 9 9 10 10 11 11 11 27 13 12 11 11 10 9 9 10 5 1 3 5 6 7 8 8 7 7 7 7 7 7 7 7 6 6 6 6
6 7 7 8 8 9 9 9 9 10 10 11 11 11 23 8 9 9 9 9 9 8 8 7 6 4 2 4 6 7 7 7 6 6 6 6 6 6 6 6 6 5 5
5 7 8 8 8 10 9 9 9 9 10 10 10 10 9 8 8 8 8 8 8 8 8 8 6 6 6 6 5 3 5 5 5 6 6 6 6 6 6 6 6 5 5
6 7 8 8 8 9 9 10 10 11 11 10 9 8 8 8 8 8 7 6 7 7 6 6 6 7 6 6 5 5 5 4 4 4 7 6 5 7 6 5 6 6 6
5 6 7 8 8 9 10 9 9 9 10 9 10 9 8 7 7 7 6 5 5 5 6 5 5 6 7 7 5 5 4 6 4 5 4 5 6 8 6 5 5 4 3
5 5 6 7 8 8 8 9 10 9 10 9 9 9 9 8 8 7 6 6 5 5 5 3 4 6 5 4 4 3 1 2 3 4 4 4 5 4 4 5 7 3 5
Wind_Direction
349 337 331 315 318 312 305 299 291 295 294 288 275 274 267 266 258 253 253 255 250 256 245 233 239 204 208 203 200 193 202 171 164 188 131 156 163 161 160 166 177 165 172
354 346 336 330 333 323 315 306 305 295 291 275 275 264 256 249 246 245 256 250 242 250 251 248 250 225 228 202 196 209 195 190 153 161 164 159 174 173 162 162 168 165 172
355 355 358 357 350 345 334 325 319 306 304 288 274 270 269 256 239 228 237 247 243 247 242 236 242 215 232 216 208 204 193 188 179 147 156 147 134 171 153 149 161 155 181
0 2 0 355 346 339 333 331 328 323 314 305 290 280 266 259 252 247 228 224 228 234 233 233 233 216 227 213 208 213 199 191 175 159 159 165 145 159 156 161 165 162 166
354 353 350 344 342 339 338 333 326 319 311 300 296 286 275 267 267 250 236 245 246 238 230 226 228 225 221 218 213 212 193 199 190 182 154 155 171 176 186 164 160 147 136
347 342 339 339 335 332 329 327 320 313 308 301 297 286 282 271 268 256 242 243 240 240 248 238 231 218 213 207 214 223 209 196 201 183 188 196 204 200 164 169 146 159 184
332 329 327 325 325 326 322 321 321 320 313 305 299 289 284 279 270 262 252 243 245 240 237 236 233 227 207 205 211 214 217 228 224 194 196 191 185 187 166 162 173 165 145
328 331 333 337 331 328 327 324 319 310 310 305 301 295 287 282 281 275 262 251 253 248 238 232 230 227 215 203 199 193 212 214 214 210 213 188 178 170 172 167 154 108 77
338 337 336 332 323 320 321 318 314 312 311 305 298 295 287 286 283 277 270 259 257 254 246 236 226 232 221 208 205 207 199 194 195 189 196 169 174 171 148 129 145 141 125
337 326 325 321 320 316 312 312 313 307 302 302 299 293 288 286 283 281 273 260 262 259 251 243 229 220 217 211 204 205 205 182 157 143 146 158 160 159 161 161 155 159 122
327 323 323 322 319 312 315 315 313 307 303 304 300 300 295 286 286 284 280 267 257 263 252 247 236 229 220 213 203 202 206 165 165 151 141 121 133 114 120 121 135 149 130
326 328 326 318 315 318 315 314 314 311 310 311 308 306 305 305 294 290 289 277 269 265 258 253 246 229 222 215 212 196 194 172 162 161 147 154 157 136 136 108 97 90 73
326 322 319 318 318 317 313 312 313 314 313 313 315 312 312 313 309 304 293 293 285 272 266 246 234 215 223 216 208 189 181 172 166 173 162 160 152 143 128 107 97 96 85
318 319 316 318 317 312 309 307 311 312 312 311 309 307 308 306 307 303 292 282 280 279 271 243 217 203 211 214 211 191 182 171 168 161 156 137 134 145 145 132 134 135 118
321 319 316 316 316 314 307 308 308 305 305 310 310 308 310 307 308 309 312 297 278 272 278 214 203 198 205 206 187 159 131 136 146 138 140 145 149 146 150 145 132 143 138
319 319 316 315 316 313 314 311 309 312 316 313 315 314 311 308 311 312 309 309 304 274 269 218 215 206 198 186 152 136 142 143 147 152 159 160 160 162 150 152 146 153 151
302 304 309 309 310 316 319 321 321 323 320 323 324 324 320 318 323 321 316 311 294 287 264 221 209 203 192 165 149 161 164 164 150 153 156 157 157 158 153 159 158 149 158
287 289 290 303 308 311 315 314 312 316 321 323 329 325 327 327 325 322 325 322 305 269 279 212 204 185 170 157 164 167 149 145 153 151 154 158 163 161 161 165 167 166 167
303 307 310 307 306 303 307 310 313 315 312 309 318 325 327 325 328 336 333 329 323 330 322 225 199 161 158 160 159 154 157 160 158 155 157 162 162 161 165 165 167 169 151
306 302 317 315 312 313 315 314 312 309 309 313 318 318 321 325 337 335 333 332 332 327 308 247 184 169 165 154 148 146 148 152 156 160 161 159 159 160 163 164 168 167 177
321 320 316 310 307 306 304 304 305 308 311 314 310 313 325 340 325 329 330 335 337 333 335 331 243 163 152 150 149 153 158 160 163 159 155 155 155 161 160 164 162 164 159
321 315 311 302 305 308 309 308 311 311 311 308 310 313 330 329 327 329 333 335 336 339 337 350 5 10 75 140 146 148 153 154 153 153 151 150 149 149 151 147 153 158 157
298 313 315 312 308 307 307 308 308 307 306 305 308 313 323 325 324 328 333 334 336 342 350 358 6 17 22 31 40 85 138 147 149 144 140 142 146 149 151 157 159 155 170
315 310 309 307 306 306 305 307 304 303 303 304 308 310 313 316 317 321 325 331 337 340 350 359 9 19 19 33 37 35 50 67 87 120 130 141 146 149 149 151 165 175 173
302 300 299 298 302 303 304 301 298 300 302 305 308 309 310 308 313 317 320 324 327 336 344 350 356 5 16 17 24 35 35 78 98 111 115 132 147 157 158 161 156 155 144
291 287 291 294 292 293 293 297 300 303 303 305 306 307 308 309 310 311 315 317 320 322 325 330 339 347 349 354 341 334 337 194 146 149 133 139 147 145 148 159 162 154 158